sat.trackr.live / text

‹ back to catalog

STARLINK-34210

NORAD 65653 · 2025-211B

PAYLOAD ACTIVE UNKNOWN

§ Identity

Operator
Country
US
Launch date
2025-09-19
Launch site
AFWTR
Launch vehicle
Mass (kg)
RCS (m²)

Purposes: comms

External: N2YO · Heavens-Above · Gunter

§ Orbital elements

Epoch: 2026-05-25T01:55:23.577600Z

Period
95.64 min
Inclination
97.4473°
Eccentricity
0.0001298
Mean motion
15.05654633 rev/d
Perigee alt
548.6 km
Apogee alt
550.4 km
Semi-major
6,927.6 km
B*
3.2572e-4
RAAN
188.9500°
Arg perigee
144.0366°
Mean anomaly
216.0948°
Rev number
3,853

§ Raw data

STARLINK-342101 65653U 25211B   26145.08013400  .00004645  00000+0  32572-3 0  99902 65653  97.4473 188.9500 0001298 144.0366 216.0948 15.05654633 38533

JSON: /api/v1/satellites/65653 · /tle

For live sub-satellite position, see the globe view (requires WebGL).

§ Visibility from observer

Set your observer location to see the next 7 days of passes ≥ 10°. The values pass through the URL so the page stays shareable.

No JS? Fill the form by hand. The geolocation button needs JavaScript.